Weather History for Eastman, GA

Change the Weather History Date:

Sunday, August 4, 2013

  Actual Average Record
Temperature  
Mean Temperature 84 °F -  
Max Temperature 93 °F 91 °F 93 °F (2013)
Min Temperature 75 °F 69 °F 70 °F (2014)
Cooling Degree Days 19    
Growing Degree Days 34 (Base 50)    
Moisture  
Dew Point 78 °F    
Average Humidity 85    
Maximum Humidity 100    
Minimum Humidity 63    
Precipitation  
Precipitation 0.00 in - - ()
Sea Level Pressure  
Sea Level Pressure 30.03 in    
Wind  
Wind Speed 2 mph (WNW)    
Max Wind Speed 13 mph    
Max Gust Speed 17 mph    
Visibility 8 miles    
Events Fog , Thunderstorm    
Averages and records for this station are not official NWS values.
T = Trace of Precipitation, MM = Missing Value Source: NWS Daily Summary

Daily Weather History Graph

Daily Weather History Graph

Search for Another Location

Airport:

Trip Planner

Search our weather history database for the weather conditions in past years. The results will help you decide how hot, cold, wet, or windy it might be!

Date:

Astronomy

Aug. 04, 2013 Rise Set
Actual Time 6:49 AM EDT 8:27 PM EDT
Civil Twilight 6:23 AM EDT 8:53 PM EDT
Nautical Twilight 5:51 AM EDT 9:25 PM EDT
Astronomical Twilight 5:17 AM EDT 9:58 PM EDT
Moon 4:50 AM EDT (8/4) 6:49 PM EDT (8/4)
Length of Visible Light 14h 30m
Length of Day
13h 37m
Waning Crescent, 5% of the Moon is Illuminated
Aug 4
Waning Crescent
Aug 6
New
Aug 14
First Quarter
Aug 20
Full
Aug 28
Last Quarter

Hourly Weather History & Observations

Time (EDT) Temp. Heat Index Dew Point Humidity Pressure Visibility Wind Dir Wind Speed Gust Speed Precip Events Conditions
12:15 AM 77.0 °F - 77.0 °F 100% 30.06 in 0.8 mi Calm Calm - N/A   Mist
12:35 AM 76.3 °F - 76.3 °F 100% 30.06 in 1.8 mi Calm Calm - N/A   Mist
12:55 AM 76.5 °F - 76.5 °F 100% 30.05 in 0.8 mi Calm Calm - N/A   Mist
1:15 AM 75.6 °F - 75.6 °F 100% 30.05 in 0.2 mi Calm Calm - N/A Fog Fog
1:35 AM 75.4 °F - 75.4 °F 100% 30.05 in 0.5 mi Calm Calm - N/A Fog Fog
1:55 AM 75.4 °F - 75.4 °F 100% 30.05 in 0.5 mi Calm Calm - N/A Fog Fog
2:15 AM 75.7 °F - 75.7 °F 100% 30.04 in 5.0 mi Calm Calm - N/A   Clear
2:35 AM 75.9 °F - 75.9 °F 100% 30.03 in 3.0 mi Calm Calm - N/A   Clear
2:55 AM 76.5 °F - 76.3 °F 99% 30.04 in 7.0 mi Calm Calm - N/A   Clear
3:15 AM 76.8 °F - 75.6 °F 96% 30.03 in 7.0 mi Calm Calm - N/A   Clear
3:35 AM 75.4 °F - 75.2 °F 99% 30.03 in 5.0 mi Calm Calm - N/A   Clear
3:55 AM 75.6 °F - 75.2 °F 99% 30.03 in 5.0 mi Calm Calm - N/A   Clear
4:15 AM 75.4 °F - 75.2 °F 99% 30.02 in 5.0 mi Calm Calm - N/A   Clear
4:35 AM 76.5 °F - 75.2 °F 96% 30.03 in 7.0 mi Calm Calm - N/A   Clear
4:55 AM 76.5 °F - 75.4 °F 96% 30.03 in 7.0 mi Calm Calm - N/A   Clear
5:15 AM 76.6 °F - 75.4 °F 96% 30.03 in 7.0 mi Calm Calm - N/A   Clear
5:35 AM 76.5 °F - 75.4 °F 96% 30.03 in 7.0 mi Calm Calm - N/A   Clear
5:55 AM 77.4 °F - 76.1 °F 96% 30.03 in 7.0 mi WNW 3.5 mph - N/A   Clear
6:15 AM 77.4 °F - 76.1 °F 96% 30.03 in 7.0 mi Calm Calm - N/A   Clear
6:35 AM 77.2 °F - 76.1 °F 96% 30.03 in 7.0 mi Calm Calm - N/A   Clear
6:55 AM 77.5 °F - 76.1 °F 95% 30.03 in 7.0 mi Calm Calm - N/A   Clear
7:15 AM 77.9 °F - 76.1 °F 94% 30.03 in 7.0 mi Calm Calm - N/A   Clear
7:35 AM 78.3 °F - 76.1 °F 93% 30.04 in 7.0 mi Calm Calm - N/A   Clear
7:55 AM 78.8 °F - 76.6 °F 93% 30.04 in 7.0 mi Calm Calm - N/A   Clear
8:15 AM 79.2 °F - 77.0 °F 93% 30.05 in 7.0 mi Calm Calm - N/A   Scattered Clouds
8:35 AM 79.7 °F - 77.4 °F 93% 30.05 in 7.0 mi Calm Calm - N/A   Scattered Clouds
8:55 AM 80.1 °F 86.3 °F 77.7 °F 93% 30.06 in 7.0 mi Calm Calm - N/A   Scattered Clouds
9:15 AM 80.8 °F 88.0 °F 78.1 °F 91% 30.06 in 7.0 mi West 4.6 mph - N/A   Mostly Cloudy
9:35 AM 82.0 °F 91.0 °F 78.3 °F 88% 30.06 in 7.0 mi Calm Calm - N/A   Scattered Clouds
9:55 AM 85.1 °F 98.5 °F 79.3 °F 83% 30.06 in 10.0 mi Calm Calm - N/A   Clear
10:15 AM 86.2 °F 99.8 °F 79.2 °F 79% 30.07 in 10.0 mi WNW 5.8 mph - N/A   Mostly Cloudy
10:35 AM 86.5 °F 99.9 °F 78.4 °F 77% 30.07 in 10.0 mi NW 5.8 mph - N/A   Mostly Cloudy
10:55 AM 88.0 °F 103.1 °F 79.2 °F 75% 30.07 in 10.0 mi NW 4.6 mph - N/A   Mostly Cloudy
11:15 AM 87.1 °F 100.9 °F 78.8 °F 76% 30.07 in 10.0 mi NW 5.8 mph - N/A   Mostly Cloudy
11:35 AM 87.3 °F 102.0 °F 79.2 °F 77% 30.07 in 10.0 mi NW 4.6 mph - N/A   Scattered Clouds
11:55 AM 88.0 °F 103.1 °F 79.2 °F 75% 30.07 in 10.0 mi WNW 4.6 mph - N/A   Mostly Cloudy
12:15 PM 88.0 °F 102.5 °F 78.8 °F 74% 30.06 in 10.0 mi WNW 8.1 mph - N/A   Mostly Cloudy
12:35 PM 88.2 °F 103.6 °F 79.2 °F 75% 30.05 in 10.0 mi West 6.9 mph - N/A   Scattered Clouds
12:55 PM 89.1 °F 104.4 °F 79.2 °F 72% 30.05 in 10.0 mi WNW 4.6 mph - N/A   Scattered Clouds
1:15 PM 89.6 °F 104.7 °F 78.6 °F 70% 30.04 in 10.0 mi West 4.6 mph - N/A   Scattered Clouds
1:35 PM 89.8 °F 105.3 °F 79.0 °F 70% 30.04 in 10.0 mi West 6.9 mph - N/A   Scattered Clouds
1:55 PM 90.5 °F 106.7 °F 79.2 °F 69% 30.03 in 10.0 mi West 6.9 mph - N/A   Scattered Clouds
2:15 PM 90.7 °F 105.9 °F 78.3 °F 67% 30.02 in 10.0 mi West 8.1 mph - N/A   Mostly Cloudy
2:35 PM 92.8 °F 109.2 °F 78.8 °F 63% 30.01 in 10.0 mi WNW 4.6 mph - N/A   Scattered Clouds
2:55 PM 91.6 °F 108.5 °F 79.2 °F 67% 30.01 in 10.0 mi West 4.6 mph - N/A   Mostly Cloudy
3:15 PM 92.3 °F 108.4 °F 78.4 °F 64% 30.00 in 10.0 mi West 8.1 mph - N/A   Mostly Cloudy
3:35 PM 93.2 °F 111.1 °F 79.2 °F 64% 29.99 in 10.0 mi West 5.8 mph - N/A   Scattered Clouds
3:55 PM 92.1 °F 110.2 °F 79.5 °F 67% 29.99 in 10.0 mi WSW 5.8 mph - N/A   Mostly Cloudy
4:15 PM 91.4 °F 108.0 °F 79.0 °F 67% 29.98 in 10.0 mi West 6.9 mph - N/A   Scattered Clouds
4:35 PM 91.2 °F 108.2 °F 79.2 °F 68% 29.97 in 10.0 mi West 4.6 mph - N/A   Scattered Clouds
4:55 PM 93.2 °F 110.2 °F 79.0 °F 63% 29.97 in 10.0 mi West 5.8 mph - N/A   Scattered Clouds
5:15 PM 91.0 °F 107.6 °F 79.2 °F 68% 29.97 in 10.0 mi West 5.8 mph - N/A   Clear
5:35 PM 89.6 °F 105.4 °F 79.0 °F 71% 29.98 in 10.0 mi WNW 6.9 mph - N/A Thunderstorm Scattered Clouds
5:55 PM 88.9 °F 103.9 °F 78.8 °F 72% 29.97 in 10.0 mi West 4.6 mph - N/A   Scattered Clouds
6:15 PM 91.4 °F 107.2 °F 78.4 °F 66% 29.97 in 10.0 mi West 12.7 mph 17.3 mph N/A   Scattered Clouds
6:35 PM 88.9 °F 103.3 °F 78.3 °F 71% 29.99 in 10.0 mi NW 5.8 mph - N/A   Scattered Clouds
6:55 PM 88.3 °F 102.9 °F 78.8 °F 73% 29.99 in 10.0 mi WNW 4.6 mph - N/A   Scattered Clouds
7:15 PM 87.1 °F 101.5 °F 79.2 °F 77% 29.99 in 10.0 mi Calm Calm - N/A   Mostly Cloudy
7:35 PM 87.8 °F 101.3 °F 78.1 °F 73% 29.99 in 10.0 mi North 3.5 mph - N/A   Overcast
7:55 PM 86.5 °F 99.4 °F 78.3 °F 76% 29.99 in 10.0 mi WNW 3.5 mph - N/A   Overcast
8:15 PM 85.6 °F 98.7 °F 78.8 °F 80% 29.99 in 10.0 mi Calm Calm - N/A   Overcast
8:35 PM 83.8 °F 95.1 °F 78.6 °F 84% 30.00 in 10.0 mi Calm Calm - N/A   Overcast
8:55 PM 82.8 °F 92.6 °F 78.1 °F 86% 30.00 in 10.0 mi Calm Calm - N/A   Scattered Clouds
9:15 PM 81.7 °F 90.2 °F 78.3 °F 89% 30.00 in 10.0 mi SSW 3.5 mph - N/A   Clear
9:35 PM 81.5 °F 89.7 °F 78.1 °F 89% 30.01 in 10.0 mi Calm Calm - N/A   Clear
9:55 PM 81.0 °F 88.6 °F 78.3 °F 91% 30.01 in 10.0 mi Calm Calm - N/A   Clear
10:15 PM 80.6 °F 88.1 °F 78.8 °F 94% 30.02 in 10.0 mi SSW 3.5 mph - N/A   Scattered Clouds
10:35 PM 80.1 °F 86.7 °F 78.8 °F 96% 30.02 in 10.0 mi Calm Calm - N/A   Scattered Clouds
10:55 PM 79.9 °F - 78.4 °F 95% 30.02 in 10.0 mi Calm Calm - N/A   Clear
11:15 PM 79.7 °F - 78.3 °F 95% 30.02 in 10.0 mi Calm Calm - N/A   Clear
11:35 PM 79.3 °F - 78.1 °F 96% 30.03 in 10.0 mi Calm Calm - N/A   Clear
11:55 PM 78.8 °F - 77.9 °F 97% 30.03 in 7.0 mi Calm Calm - N/A   Clear